Location: Leuk
(46.3174°N, 7.6341°E)
Time: 18:14:49
(UTC+00:00)

Meteor 1-20 Rocket - Pass Details

Date: 09 March 2021
Orbit: 820 x 891 km, 81.2° (Epoch: 15 April)

Event Time Altitude Azimuth Distance (km) Brightness Sun altitude
Rises 03:50:55 0° 350° (N) 3,441 7.5 -21.8°
Reaches altitude 10° 03:53:21 10° 352° (N) 2,511 6.8 -21.4°
Maximum altitude 03:59:04 73° 78° (ENE) 915 4.5 -20.5°
Drops below altitude 10° 04:04:50 10° 163° (SSE) 2,536 6.7 -19.5°
Sets 04:07:18 0° 165° (SSE) 3,477 7.4 -19.1°
